Regional Weather Roundup
Issued by NWS

Home | Current Version | Previous Version | Graphics & Text | Print | Product List | Glossary On
Versions: 1 2 3 4 5 6 7 8 9 10 11 12 13 14 15 16 17 18 19 20 21 22 23 24 25 26 27 28 29 30 31 32 33 34 35 36 37 38 39 40 41 42 43 44 45 46 47 48 49 50
000
ASUS44 KMEG 021510
RWRTN
TENNESSEE HOURLY STATE WEATHER ROUNDUP
NATIONAL WEATHER SERVICE MEMPHIS TN
1000 AM CDT MON MAY 02 2016

TNZ002-004-019-021-049-052-054-088>092-021600-
WEST TENNESSEE

CITY           SKY/WX    TMP DP  RH WIND       PRES   REMARKS
MEMPHIS INTL   LGT RAIN  58  55  90 E12       29.99F
NWS MEMPHIS      N/A     56 N/A N/A MISG        N/A
JACKSON        RAIN      56  55  97 SE9       30.05R FOG
DYERSBURG      CLOUDY    57  54  88 NE5         N/A
UNION CITY     PTSUNNY   57  54  88 NE5       30.02R
LEXINGTON      CLOUDY    55  54  94 N7        30.02R
$$

TNZ008-025-027-028-033-062-065-066-021600-
NORTH MIDDLE TENNESSEE

CITY           SKY/WX    TMP DP  RH WIND       PRES   REMARKS
NASHVILLE      CLOUDY    64  53  67 N7        30.00F
CLARKSVILLE    RAIN      57  54  89 N9        30.01F FOG
SMYRNA         CLOUDY    67  56  67 N6        30.00F
COOKEVILLE     CLOUDY    70  64  83 CALM      30.00R
CROSSVILLE     PTSUNNY   68  61  78 S6        30.03F
$$

TNZ061-075-076-078-094-096-097-021600-
SOUTH MIDDLE TENNESSEE

CITY           SKY/WX    TMP DP  RH WIND       PRES   REMARKS
FAYETTEVILLE   MOSUNNY   73  66  78 S9        30.00S
TULLAHOMA      MOSUNNY   72  68  88 SW7       30.00S
WINCHESTER     PTSUNNY   75  63  64 SW5       30.00R
MCMINNVILLE    CLOUDY    72  68  88 S5        30.00F
COLUMBIA       CLOUDY   N/A N/A N/A NE6       29.99S
SHELBYVILLE    CLOUDY    68  66  94 N3        30.00F
$$

TNZ017-018-042-046-047-021600-
NORTHEAST TENNESSEE

CITY           SKY/WX    TMP DP  RH WIND       PRES   REMARKS
TRI CITIES     PTSUNNY   73  59  61 SW9       30.04F
$$

TNZ012-013-036-069-073-074-021600-
CENTRAL EAST TENNESSEE

CITY           SKY/WX    TMP DP  RH WIND       PRES   REMARKS
KNOXVILLE      CLOUDY    72  62  71 S6        30.00F
OAK RIDGE      PTSUNNY   72  61  68 VRB6      30.02F
GATLINBURG     MOSUNNY   75  59  57 CALM      30.00F
MORRISTOWN     CLOUDY    73  61  64 SW6       30.02F
$$

TNZ083-085-099-021600-
SOUTHEAST TENNESSEE

CITY           SKY/WX    TMP DP  RH WIND       PRES   REMARKS
CHATTANOOGA    PTSUNNY   69  62  78 SW3       30.01F
$$

SKY/WX REPORTED AS FAIR MEANS FEW OR NO CLOUDS BELOW
12 THOUSAND FEET.





USA.gov is the U.S. government's official web portal to all federal, state and local government web resources and services.